Theta_e
350 347 345 345 349 352 353 354 354 355 356 356 356 356 356 356 355 353 351 348 349 349 348 345 346 341 337 329 329 327 329 334 345 344 341 339 340 341 338 338 338 339 340
349 346 347 351 354 352 353 355 356 357 357 356 351 347 349 351 356 355 353 350 349 350 348 348 346 338 329 331 332 332 336 338 344 344 342 341 340 339 340 339 339 337 336
352 351 352 355 354 352 352 352 352 349 354 349 348 347 344 344 348 354 356 351 351 349 347 344 346 333 331 332 331 333 334 337 337 340 344 343 341 340 339 340 340 339 338
353 353 355 358 355 353 348 356 356 356 355 352 350 346 345 346 349 354 351 351 349 349 347 347 343 331 332 332 333 334 334 336 335 338 341 342 342 340 339 340 340 340 339
353 353 354 357 356 354 350 350 355 352 353 352 346 346 347 347 347 348 352 351 349 348 349 346 334 333 333 340 337 334 335 335 336 337 337 338 339 339 339 339 336 337 339
353 353 352 354 354 356 358 354 347 347 349 351 346 344 349 348 347 347 348 348 345 345 341 336 339 342 335 340 341 334 331 331 331 329 326 331 337 338 338 338 338 336 337
353 353 352 353 350 355 356 358 354 352 352 350 349 347 346 349 348 345 344 344 341 339 338 338 337 342 340 335 339 335 335 334 334 328 322 321 325 335 336 337 338 336 334
352 353 353 354 349 358 354 354 353 356 353 350 348 346 344 342 342 343 342 342 338 338 338 337 337 340 339 335 336 334 334 335 334 330 323 322 321 323 334 336 337 337 336
350 349 351 353 353 355 357 352 352 352 354 354 348 345 348 346 341 339 337 338 337 339 337 338 338 336 338 335 334 333 333 334 332 333 326 324 321 320 321 331 336 337 338
352 351 353 352 353 354 354 357 353 352 351 354 352 346 342 341 347 347 339 338 338 338 338 338 339 338 337 335 334 333 331 331 331 332 328 325 325 324 322 320 327 335 335
353 354 352 352 354 355 356 354 354 354 352 351 350 348 339 338 339 341 343 339 339 338 337 336 337 337 336 335 334 335 331 330 330 329 327 328 325 324 322 321 325 332 332
354 353 352 353 350 351 355 356 354 353 354 351 350 346 341 337 338 340 341 340 339 339 337 335 335 334 332 333 332 331 331 330 330 329 327 326 327 330 327 320 324 336 332
353 355 351 351 352 349 349 353 355 353 353 351 350 349 342 338 333 338 339 340 339 337 334 332 331 331 332 333 333 329 327 328 328 327 326 325 324 327 326 322 325 335 337
354 348 348 347 345 342 347 352 358 354 351 351 352 352 347 341 337 338 339 340 340 335 333 333 330 333 332 329 328 326 324 325 324 322 321 321 320 321 322 322 323 332 337
351 348 347 346 348 351 350 350 355 355 350 348 347 349 349 347 344 342 340 341 340 339 338 331 335 332 330 324 325 323 323 321 320 319 319 319 319 320 320 321 322 329 335
346 350 348 350 351 352 350 347 351 353 354 357 354 353 354 350 347 346 344 343 342 335 335 332 333 332 329 324 324 324 324 322 320 318 318 318 318 320 324 325 323 328 334
350 351 349 347 349 350 347 349 357 360 359 358 352 354 355 353 348 347 346 344 340 336 334 331 332 329 328 328 326 324 321 322 323 320 320 317 318 323 325 326 328 329 333
352 352 351 347 349 351 356 359 357 358 356 356 356 357 357 354 349 348 347 345 340 337 335 333 331 328 327 329 327 325 326 325 326 321 318 317 318 322 324 326 328 329 333
353 354 353 354 358 361 358 356 354 354 355 355 356 358 358 356 351 350 348 346 340 332 332 333 330 328 328 327 327 327 326 326 324 322 323 319 320 321 323 326 328 329 331
353 354 358 357 355 354 353 354 354 355 356 357 357 355 356 357 351 351 348 343 335 329 332 333 331 329 328 327 327 326 325 325 325 324 324 325 323 322 322 324 326 328 329
355 356 353 353 353 353 351 351 352 352 352 352 352 354 354 352 353 350 347 341 334 330 333 331 330 329 329 327 327 327 326 326 325 325 326 325 325 325 323 323 324 326 328
353 349 353 353 351 350 351 352 351 349 353 353 350 351 348 350 350 348 346 344 335 331 330 330 328 328 329 328 327 326 325 327 327 324 324 326 325 324 324 324 323 324 326
353 352 349 348 346 348 349 349 349 352 348 345 345 345 346 345 346 345 344 341 333 331 328 330 328 328 329 328 325 325 323 327 326 324 325 327 325 326 324 324 321 322 324
352 347 344 344 344 345 348 349 347 350 348 346 343 343 342 342 343 341 335 332 330 329 326 328 329 328 329 329 325 325 325 325 324 324 324 326 323 324 325 325 322 321 323
347 342 342 342 342 341 343 344 343 344 344 346 343 342 340 338 336 335 333 331 329 327 327 326 325 324 324 326 326 326 327 325 325 324 323 325 322 324 324 323 324 321 322
344 341 337 335 336 336 338 341 342 340 340 341 342 339 339 334 331 329 331 330 331 329 327 326 324 323 323 323 323 327 329 328 327 327 323 325 323 323 324 323 323 323 321
Wind_Speed
5 5 6 5 5 5 6 6 6 7 7 8 9 11 12 14 14 14 11 11 11 12 12 12 12 11 12 11 12 11 11 15 17 17 18 18 20 21 22 20 20 17 16
5 6 6 5 4 4 6 7 6 6 6 6 6 7 11 13 14 16 14 13 11 12 13 13 13 11 10 9 8 9 8 9 13 13 15 16 17 20 22 22 22 22 21
6 7 7 5 4 4 7 7 3 5 3 5 8 12 16 15 14 13 15 15 11 13 14 13 14 11 10 8 7 7 5 7 9 11 12 13 15 18 20 23 24 25 23
7 8 7 3 3 5 7 5 4 5 5 6 9 13 13 12 11 10 13 14 14 9 14 14 12 11 9 7 5 4 3 3 6 7 8 10 13 17 21 22 21 21 18
6 6 4 4 5 4 6 4 4 6 6 6 8 9 8 6 8 7 8 10 9 10 12 10 10 10 8 6 8 7 6 6 3 4 6 6 8 14 19 20 24 22 20
6 7 6 5 4 3 4 4 4 7 5 7 8 7 7 5 4 3 5 5 6 4 7 9 11 9 10 8 8 6 5 4 5 6 5 6 6 8 13 18 24 25 23
6 6 6 6 7 6 6 4 7 10 8 10 7 7 2 4 5 4 3 1 6 3 10 13 14 11 9 12 10 7 6 7 8 7 7 6 6 6 8 15 19 27 31
6 8 8 7 8 7 7 6 8 6 5 7 4 4 4 1 5 8 7 6 3 8 11 17 16 12 14 14 11 12 8 8 9 8 8 6 5 5 6 10 17 23 27
7 7 9 10 10 9 8 9 10 9 9 6 8 3 4 6 6 3 4 5 6 7 11 17 13 13 15 16 14 14 13 14 10 11 8 8 7 4 5 7 10 18 22
11 13 11 11 12 13 15 12 12 11 10 11 10 6 6 8 4 4 3 7 7 10 12 10 12 13 14 18 16 14 14 14 14 13 11 10 10 5 5 6 8 14 19
12 9 10 11 13 15 17 19 15 15 11 12 12 3 7 6 11 3 6 4 12 12 11 10 8 8 11 12 10 9 17 14 14 14 14 11 10 11 7 8 8 14 19
9 8 10 11 11 13 15 15 16 18 15 15 13 8 4 7 8 12 6 8 8 6 7 7 6 5 5 5 6 8 12 15 15 15 11 10 10 8 8 9 9 11 20
10 7 9 11 13 16 17 17 16 18 18 17 17 17 17 23 18 23 19 11 8 5 4 7 5 6 6 5 8 11 11 14 11 12 11 10 10 10 9 11 10 10 18
10 12 14 16 19 18 17 17 14 17 20 19 20 21 19 25 25 29 21 15 3 7 3 3 7 6 7 8 10 8 8 9 11 12 11 10 10 9 9 11 13 13 15
14 15 16 17 15 14 14 14 13 16 19 19 21 22 20 23 28 22 17 23 15 3 2 4 5 8 9 13 12 13 11 13 12 11 10 8 9 9 8 10 12 13 12
15 15 14 13 13 15 17 18 14 14 16 17 19 18 16 23 26 19 19 21 24 6 3 3 4 10 12 12 10 13 12 11 9 9 8 7 8 7 7 6 10 11 10
15 14 14 16 17 18 19 17 14 15 15 15 16 14 15 16 20 16 20 19 9 9 6 4 5 10 14 13 11 13 12 11 8 8 6 7 9 9 7 7 9 10 10
14 14 14 14 15 14 15 15 15 13 15 16 17 15 14 12 16 16 16 16 10 11 8 11 11 9 16 11 12 13 10 8 9 5 5 6 9 11 9 8 8 10 9
14 13 13 13 13 13 12 12 15 17 16 17 18 16 15 11 13 16 16 15 13 13 9 10 11 12 15 13 13 10 9 9 7 6 4 6 7 9 10 9 8 10 10
12 12 10 10 10 10 12 13 15 15 15 16 15 14 13 10 11 12 12 13 17 15 9 11 12 15 15 14 11 12 9 8 8 6 8 7 6 6 9 8 9 9 11
13 9 6 7 8 9 10 16 15 14 12 13 13 13 10 7 7 9 13 16 17 18 11 12 13 16 15 17 13 11 11 10 7 8 7 7 7 7 7 9 8 11 12
9 5 2 4 5 7 12 12 9 8 10 12 14 13 11 7 1 4 6 16 16 18 13 11 12 15 16 16 13 14 12 8 4 8 7 7 6 6 4 6 10 12 12
7 5 2 2 5 8 7 8 8 7 9 13 15 13 10 8 3 7 10 12 10 12 9 11 13 15 18 17 16 15 14 9 5 4 9 7 7 7 5 6 10 11 12
8 6 5 4 7 8 6 7 6 6 8 10 13 13 10 8 7 9 13 12 11 9 7 5 8 12 11 17 16 14 12 9 5 5 8 5 7 6 7 8 12 12 13
11 9 8 7 7 9 7 5 6 7 9 10 10 12 10 9 9 7 10 13 11 8 9 7 6 9 11 17 16 11 10 11 3 5 10 4 5 4 5 8 9 14 14
11 10 10 9 8 9 9 6 7 6 9 10 10 9 8 7 10 9 11 11 10 9 11 10 9 11 12 10 13 11 9 11 5 4 9 8 7 7 3 7 10 11 14
Wind_Direction
307 309 292 290 289 291 290 290 284 279 272 259 258 264 267 262 255 251 249 258 253 239 229 225 240 243 249 255 258 253 249 242 242 240 228 222 219 222 211 208 200 205 205
330 323 308 306 307 315 327 297 274 292 284 263 271 295 292 274 259 247 246 256 251 236 230 230 235 250 253 251 260 262 256 241 231 237 233 224 218 218 215 213 207 208 202
336 342 339 331 307 342 347 359 354 326 309 281 295 305 302 285 267 259 246 250 258 229 238 230 233 244 252 262 267 268 245 228 228 229 233 228 213 211 207 208 206 205 221
311 324 340 339 346 351 347 337 348 315 305 298 319 318 307 298 292 273 245 239 251 226 243 235 227 238 249 258 246 242 262 244 224 225 232 234 222 210 207 199 199 196 199
313 311 311 316 334 351 5 349 326 314 307 311 326 340 335 325 305 283 261 244 233 233 223 231 234 236 244 241 245 234 239 231 212 183 203 221 219 210 215 212 203 199 190
285 285 291 289 302 315 321 352 341 329 320 337 334 344 9 2 359 336 273 228 202 192 231 233 234 226 229 219 216 231 237 207 164 159 162 185 212 210 214 207 203 203 196
269 272 301 290 299 296 313 318 331 342 355 348 345 327 300 70 63 63 58 115 137 228 248 240 247 224 214 217 221 226 201 163 148 149 150 163 173 195 208 208 204 204 206
289 277 280 284 290 279 308 326 333 335 339 346 341 302 330 258 55 52 50 98 78 267 247 246 239 239 230 217 204 227 203 171 154 157 158 149 152 165 178 199 204 203 204
283 287 283 281 293 292 308 321 311 321 328 328 338 335 319 338 335 33 28 340 328 305 278 272 254 242 239 223 219 212 204 196 187 167 183 172 159 143 152 176 191 199 198
284 274 275 278 287 295 295 290 296 311 324 321 323 311 31 29 343 322 321 321 297 290 284 270 255 248 229 225 225 221 216 210 204 180 178 182 192 175 165 157 169 181 192
311 272 268 281 289 291 289 282 282 295 291 299 301 315 97 26 328 291 289 285 300 287 279 261 262 237 230 229 223 228 219 198 192 187 171 163 173 184 183 160 166 179 184
297 280 270 277 298 311 310 299 273 267 274 289 288 278 206 203 242 261 248 257 268 278 246 238 237 183 153 151 160 171 177 176 187 178 170 169 173 178 180 167 171 176 173
275 285 290 288 290 297 297 289 277 274 282 286 273 255 239 231 227 241 244 242 240 239 197 230 214 175 146 164 153 143 139 154 158 173 181 175 180 190 196 185 180 178 190
276 283 287 289 291 288 285 280 277 278 286 285 280 278 262 234 240 238 224 229 195 201 173 169 191 173 153 149 151 151 143 161 158 162 176 175 178 185 197 198 194 177 181
271 286 285 287 280 277 285 287 283 283 288 289 284 283 267 258 249 252 235 240 238 163 131 184 148 169 147 141 142 149 149 144 145 152 163 172 168 180 183 193 196 192 183
271 277 281 278 275 273 281 287 286 290 295 295 295 287 268 273 256 262 242 258 251 134 122 163 165 153 151 140 137 146 141 138 144 150 163 168 169 163 155 169 181 187 183
267 274 280 279 276 280 285 288 292 298 300 301 305 297 284 277 261 250 247 254 215 157 131 140 130 147 151 147 148 163 161 150 137 140 156 159 165 150 152 151 166 177 183
257 268 277 276 278 283 289 295 303 297 298 304 304 304 297 281 265 243 247 244 205 160 162 140 139 139 154 144 148 151 157 160 144 133 135 150 161 157 154 158 161 169 169
245 258 262 272 284 291 300 305 301 304 307 304 305 304 299 278 260 243 240 222 185 162 160 150 140 147 143 142 145 145 154 148 135 139 144 144 153 167 156 161 169 166 165
231 248 260 274 286 299 305 308 309 310 312 312 313 312 305 288 252 229 216 209 168 162 160 144 142 150 151 152 163 153 152 165 147 152 160 164 154 159 178 177 175 168 170
223 233 256 284 305 316 311 311 307 315 326 327 334 336 334 305 231 210 198 180 160 159 166 146 150 157 159 160 174 170 171 174 172 172 159 149 148 155 194 196 190 175 184
202 219 258 326 330 324 330 336 341 348 349 350 346 348 351 4 355 164 190 178 169 158 167 152 161 169 163 161 174 171 162 162 177 201 188 183 182 174 187 181 195 188 189
162 146 112 31 1 1 2 3 2 13 20 20 19 12 10 25 82 145 147 154 165 176 161 156 162 177 166 165 169 170 172 165 158 171 197 195 200 209 203 208 201 192 185
152 140 114 87 57 35 25 15 19 43 36 31 30 23 30 45 96 123 136 138 153 170 177 133 150 175 173 164 168 177 175 168 161 175 180 188 205 214 212 206 214 199 192
147 137 125 109 74 51 38 35 44 40 34 31 30 38 48 74 92 107 131 138 145 163 173 160 138 150 169 167 168 163 173 169 177 196 195 173 173 162 182 203 210 209 206
143 137 120 108 91 67 42 36 45 32 33 30 29 40 43 96 112 113 121 130 135 168 167 159 148 150 162 165 177 177 185 188 171 188 204 186 166 163 167 214 202 209 211